FW8807 Weather Reports


time (UTC)temp
C
wind
direction
speed
KPH
gust
KPH
rain 1hr
cm
rain 24hr
cm
rain mn
cm
humidity
%
barometer
mb
20260505025018 16 248 1.6 8.0 0.00 0.30 0.15 72 1024.6
20260505024018 16 248 1.6 4.8 0.00 0.30 0.15 72 1024.6
20260505023018 16 248 1.6 9.7 0.00 0.30 0.15 74 1024.8
20260505022019 16 0.0 4.8 0.00 0.30 0.15 75 1024.8
20260505021018 16 0.0 3.2 0.00 0.30 0.15 77 1024.8
20260505020020 15 0.0 4.8 0.00 0.30 0.15 80 1024.9
20260505015018 15 225 1.6 6.4 0.00 0.30 0.15 82 1025.0
20260505014018 15 225 1.6 4.8 0.00 0.30 0.15 83 1025.0
20260505013018 15 225 3.2 12.9 0.00 0.30 0.15 85 1025.0
20260505012018 14 225 3.2 9.7 0.00 0.30 0.15 87 1025.0
20260505011018 14 225 3.2 8.0 0.00 0.30 0.15 89 1024.8
20260505010019 13 225 1.6 8.0 0.00 0.30 0.15 90 1024.7
20260505005020 13 225 1.6 4.8 0.00 0.30 0.15 91 1024.6
20260505004018 13 225 1.6 9.7 0.00 0.30 0.15 92 1024.5
20260505003018 13 203 1.6 4.8 0.00 0.30 0.15 92 1024.4
20260505002018 13 0.0 4.8 0.00 0.33 0.15 92 1024.4
20260505001019 13 203 1.6 6.4 0.00 0.33 0.15 92 1024.3
20260505000018 14 0.0 1.6 0.00 0.33 0.15 92 1024.3
20260504235040 13 0.0 1.6 0.00 0.33 0.15 93 1024.3
20260504234038 13 0.0 0.0 0.00 0.33 0.15 93 1024.2
20260504233017 13 0.0 1.6 0.00 0.33 0.15 93 1024.2
20260504232018 13 0.0 0.0 0.00 0.36 0.15 93 1024.1
20260504231017 12 0.0 1.6 0.00 0.36 0.15 93 1024.1
20260504230141 12 0.0 0.0 0.00 0.36 0.15 92 1024.0
20260504225038 12 0.0 0.0 0.00 0.36 0.15 93 1024.0
20260504224121 12 0.0 0.0 0.00 0.36 0.15 93 1023.9
20260504223017 12 0.0 0.0 0.00 0.36 0.15 93 1023.8
20260504222017 12 0.0 1.6 0.03 0.36 0.15 92 1023.7
20260504221019 12 0.0 4.8 0.03 0.36 0.15 93 1023.7
20260504220018 12 0.0 0.0 0.03 0.36 0.15 92 1023.5
20260504215018 12 0.0 0.0 0.03 0.36 0.15 92 1023.5
20260504214039 12 0.0 0.0 0.03 0.36 0.15 92 1023.4
20260504213038 12 0.0 0.0 0.03 0.36 0.15 92 1023.3
20260504212019 12 0.0 0.0 0.03 0.64 0.13 92 1023.1
20260504211017 12 0.0 0.0 0.03 0.64 0.13 92 1023.0
20260504210019 12 0.0 0.0 0.03 0.64 0.13 92 1022.7
20260504205017 12 0.0 0.0 0.03 0.64 0.13 92 1022.6
20260504204019 12 0.0 0.0 0.03 0.64 0.13 92 1022.6
20260504203017 12 0.0 0.0 0.03 0.64 0.13 92 1022.6
20260504202018 12 0.0 0.0 0.00 0.64 0.10 92 1022.5
20260504201017 12 0.0 0.0 0.00 0.64 0.10 92 1022.4
20260504200017 12 0.0 0.0 0.00 0.64 0.10 92 1022.3
20260504195019 12 0.0 0.0 0.00 0.64 0.10 92 1022.4
20260504194018 12 0.0 0.0 0.00 0.64 0.10 92 1022.3
20260504193037 12 0.0 0.0 0.00 0.64 0.10 92 1022.2
20260504192017 11 0.0 0.0 0.00 0.71 0.10 92 1022.1
20260504191019 11 0.0 0.0 0.05 0.71 0.10 91 1022.0
20260504190038 11 0.0 0.0 0.05 0.71 0.10 91 1022.0
20260504185017 12 0.0 0.0 0.05 0.71 0.10 91 1022.0
20260504184017 12 0.0 0.0 0.05 0.71 0.10 91 1021.9
20260504183017 12 0.0 0.0 0.05 0.71 0.10 91 1021.9
20260504182017 12 0.0 0.0 0.05 0.71 0.10 91 1021.8
20260504181017 12 0.0 0.0 0.03 0.69 0.05 91 1021.7
20260504180037 12 0.0 0.0 0.03 0.69 0.05 91 1021.7
20260504175017 12 0.0 0.0 0.00 0.66 0.05 91 1021.8
20260504174200 12 0.0 0.0 0.00 0.66 0.05 91 1021.8
20260504173039 12 0.0 0.0 0.03 0.66 0.05 91 1021.8
20260504172018 11 0.0 0.0 0.05 0.66 0.05 91 1021.9
20260504171017 11 0.0 0.0 0.05 0.66 0.05 90 1021.9
20260504151037 12 0.0 0.0 0.00 1.02 0.00 89 1021.9
20260504141019 12 0.0 0.0 0.00 1.02 1.02 88 1021.4
20260504081016 16 270 1.6 9.7 0.00 1.17 0.86 71 1017.8
20260504045016 18 270 6.4 17.7 0.00 1.27 0.86 66 1016.0
20260504044016 18 225 6.4 20.9 0.00 1.27 0.86 64 1015.9
20260504043016 18 248 6.4 24.1 0.00 1.27 0.86 65 1015.9
20260504042016 18 248 6.4 20.9 0.00 1.27 0.86 65 1015.7
20260504041018 18 248 6.4 16.1 0.00 1.27 0.86 66 1015.8
20260504040037 18 248 4.8 16.1 0.00 1.27 0.86 68 1015.7
20260504035016 18 225 4.8 17.7 0.00 1.27 0.86 69 1015.8
20260504034016 18 225 6.4 20.9 0.00 1.27 0.86 68 1015.8
20260504033018 18 248 4.8 22.5 0.00 1.27 0.86 70 1015.7
20260504032018 17 248 4.8 17.7 0.00 1.27 0.86 71 1015.7
20260504031039 17 248 4.8 19.3 0.00 1.27 0.86 73 1015.8
20260504030018 17 248 4.8 14.5 0.00 1.27 0.86 73 1015.8